Topeka, KS

11:42 PM CST on December 09, 2019 (GMT -0600)
Billard Municipal

Weather History for KTOP - August, 2019

Change the Weather History Date:

Saturday, August 17, 2019

  Actual Average Record
Temperature  
Mean Temperature 78 °F 78 °F  
Max Temperature 89 °F 89 °F 109 °F (1936)
Min Temperature 66 °F 66 °F 51 °F (2012)
Degree Days  
Heating Degree Days 0 0  
Month to date heating degree days 0 0  
Since 1 June heating degree days 0 8  
Since 1 July heating degree days 0 0  
Cooling Degree Days 13 13  
Month to date cooling degree days 221 230  
Year to date cooling degree days 1100 1072  
Since 1 June cooling degree days 988 946  
Growing Degree Days 28 (Base 50)    
Moisture  
Dew Point 67 °F    
Average Humidity 74    
Maximum Humidity 93    
Minimum Humidity 55    
Precipitation  
Precipitation 2.55 in 0.14 in 2.63 in (2009)
Month to date precipitation 7.92 2.32  
Year to date precipitation 36.78 24.65  
Snow  
Snow T in 0.00 in 0.00 in ()
Month to date snowfall T 0.0  
Year to date snowfall 18.5 11.3  
Since 1 July snowfall T 0.0  
Snow Depth 0.00 in    
Sea Level Pressure  
Sea Level Pressure 29.84 in    
Wind  
Wind Speed 11 mph (ESE)    
Max Wind Speed 36 mph    
Max Gust Speed 53 mph    
Visibility 7 miles    
Events Fog , Rain , Thunderstorm    
T = Trace of Precipitation, MM = Missing Value Source: NWS Daily Summary

Daily Weather History Graph

Daily Weather History Graph

Search for Another Location

Airport or City:

Astronomy

Aug. 17, 2019 Rise Set
Actual Time 6:37 AM CDT 8:15 PM CDT
Civil Twilight 6:09 AM CDT 8:43 PM CDT
Nautical Twilight 5:34 AM CDT 9:17 PM CDT
Astronomical Twilight 4:58 AM CDT 9:53 PM CDT
Moon 9:44 PM CDT (8/17) 8:26 AM CDT (8/17)
Length of Visible Light 14h 34m
Length of Day
13h 37m
Waning Gibbous, 96% of the Moon is Illuminated
Aug 17
Waning Gibbous
Aug 23
Last Quarter
Aug 30
New
Sep 5
First Quarter
Sep 13
Full

Hourly Weather History & Observations

Time (CDT) Temp. Heat Index Dew Point Humidity Pressure Visibility Wind Dir Wind Speed Gust Speed Precip Events Conditions
12:08 AM 73.0 °F - 71.1 °F 93% 29.81 in 1.2 mi East 19.6 mph 32.2 mph 0.39 in Rain , Thunderstorm Heavy Thunderstorms and Rain
12:39 AM 75.0 °F - 71.1 °F 87% 29.79 in 1.0 mi ESE 26.5 mph 39.1 mph 1.34 in Rain , Thunderstorm Heavy Thunderstorms and Rain
12:53 AM 73.9 °F - 70.0 °F 87% 29.74 in 3.0 mi SE 26.5 mph 44.9 mph 1.64 in Rain , Thunderstorm Thunderstorms and Rain
1:13 AM 71.1 °F - 66.0 °F 84% 29.77 in 6.0 mi SE 19.6 mph 27.6 mph 0.02 in Rain , Thunderstorm Thunderstorms and Rain
1:27 AM 72.0 °F - 68.0 °F 87% 29.78 in 10.0 mi East 17.3 mph 39.1 mph 0.03 in Rain , Thunderstorm Light Thunderstorms and Rain
1:49 AM 75.2 °F - 68.0 °F 78% 29.77 in 10.0 mi SE 16.1 mph 27.6 mph 0.03 in Thunderstorm Thunderstorm
1:53 AM 75.9 °F - 66.9 °F 74% 29.75 in 10.0 mi SE 18.4 mph 28.8 mph 0.03 in Thunderstorm Thunderstorm
2:18 AM 73.9 °F - 66.9 °F 79% 29.90 in 10.0 mi WNW 24.2 mph 36.8 mph N/A Thunderstorm Mostly Cloudy
2:27 AM 68.0 °F - 64.0 °F 87% 29.92 in 1.8 mi WNW 21.9 mph 42.6 mph 0.00 in Rain , Thunderstorm Heavy Thunderstorms and Rain
2:32 AM 66.9 °F - 64.0 °F 90% 29.91 in 0.5 mi NW 26.5 mph 42.6 mph 0.12 in Fog , Rain , Thunderstorm Heavy Thunderstorms and Rain
2:42 AM 66.9 °F - 64.9 °F 93% 29.94 in 0.5 mi NNW 29.9 mph 52.9 mph 0.90 in Fog , Rain , Thunderstorm Heavy Thunderstorms and Rain
2:45 AM 66.9 °F - 66.0 °F 97% 29.93 in 0.5 mi North 25.3 mph 52.9 mph 1.05 in Fog , Rain , Thunderstorm Heavy Thunderstorms and Rain
2:49 AM 66.2 °F - 66.2 °F 100% 29.93 in 1.0 mi North 23.0 mph 43.7 mph 1.23 in Rain , Thunderstorm Heavy Thunderstorms and Rain
2:53 AM 68.0 °F - 64.9 °F 90% 29.89 in 1.2 mi NNE 23.0 mph 35.7 mph 1.31 in Rain , Thunderstorm Heavy Thunderstorms and Rain
3:13 AM 68.0 °F - 64.9 °F 90% 29.89 in 3.0 mi ENE 21.9 mph 32.2 mph 0.50 in Rain , Thunderstorm Light Thunderstorms and Rain
3:32 AM 68.0 °F - 64.0 °F 87% 29.89 in 10.0 mi ENE 20.7 mph 28.8 mph 0.50 in Rain , Thunderstorm Light Rain
3:53 AM 68.0 °F - 62.1 °F 81% 29.85 in 10.0 mi NE 15.0 mph 26.5 mph 0.51 in Rain Light Rain
4:13 AM 68.0 °F - 63.0 °F 84% 29.89 in 10.0 mi ENE 8.1 mph 18.4 mph 0.00 in Thunderstorm Thunderstorm
4:28 AM 68.0 °F - 63.0 °F 84% 29.90 in 10.0 mi ESE 11.5 mph - 0.00 in Rain , Thunderstorm Light Rain
4:41 AM 68.0 °F - 62.1 °F 81% 29.89 in 10.0 mi ENE 6.9 mph - 0.00 in Rain Light Rain
4:53 AM 68.0 °F - 63.0 °F 84% 29.86 in 10.0 mi East 8.1 mph - 0.00 in Rain Light Rain
5:02 AM 68.0 °F - 63.0 °F 84% 29.91 in 10.0 mi NNE 8.1 mph - 0.00 in Rain , Thunderstorm Light Rain
5:32 AM 68.0 °F - 64.0 °F 87% 30.01 in 9.0 mi West 21.9 mph 34.5 mph 0.01 in Rain , Thunderstorm Light Thunderstorms and Rain
5:38 AM 68.0 °F - 63.0 °F 84% 30.00 in 1.5 mi NW 11.5 mph 34.5 mph 0.03 in Rain , Thunderstorm Heavy Thunderstorms and Rain
5:42 AM 66.9 °F - 63.0 °F 87% 29.97 in 0.8 mi ENE 19.6 mph 25.3 mph 0.17 in Rain , Thunderstorm Heavy Thunderstorms and Rain
5:44 AM 66.9 °F - 63.0 °F 87% 29.95 in 0.5 mi ENE 19.6 mph 25.3 mph 0.38 in Fog , Rain , Thunderstorm Heavy Thunderstorms and Rain
5:49 AM 66.2 °F - 64.4 °F 94% 29.94 in 1.0 mi ENE 10.4 mph 25.3 mph 0.63 in Rain , Thunderstorm Heavy Thunderstorms and Rain
5:53 AM 66.9 °F - 64.0 °F 90% 29.90 in 2.0 mi East 10.4 mph - 0.69 in Rain , Thunderstorm Thunderstorms and Rain
5:55 AM 66.9 °F - 64.0 °F 90% 29.92 in 3.0 mi East 11.5 mph - 0.01 in Rain , Thunderstorm Thunderstorms and Rain
6:08 AM 66.9 °F - 64.0 °F 90% 29.91 in 10.0 mi East 11.5 mph - 0.02 in Rain , Thunderstorm Light Rain
6:26 AM 68.0 °F - 64.0 °F 87% 29.90 in 10.0 mi East 6.9 mph - 0.02 in   Overcast
6:53 AM 66.9 °F - 64.0 °F 90% 29.87 in 10.0 mi East 3.5 mph - 0.02 in   Partly Cloudy
7:53 AM 66.9 °F - 64.0 °F 90% 29.81 in 10.0 mi East 10.4 mph 21.9 mph 0.00 in   Clear
8:53 AM 70.0 °F - 64.9 °F 84% 29.82 in 10.0 mi SSE 9.2 mph - N/A   Clear
9:53 AM 73.0 °F - 64.9 °F 76% 29.84 in 10.0 mi ESE 6.9 mph - N/A   Clear
10:53 AM 75.9 °F - 66.0 °F 71% 29.84 in 10.0 mi SE 12.7 mph 21.9 mph N/A   Clear
11:53 AM 79.0 °F - 68.0 °F 69% 29.83 in 10.0 mi South 13.8 mph 23.0 mph N/A   Partly Cloudy
12:53 PM 82.9 °F 86.5 °F 69.1 °F 63% 29.80 in 10.0 mi South 11.5 mph - N/A   Clear
1:53 PM 86.0 °F 90.7 °F 70.0 °F 59% 29.78 in 10.0 mi South 9.2 mph - N/A   Clear
2:53 PM 88.0 °F 93.8 °F 71.1 °F 57% 29.76 in 10.0 mi South 11.5 mph 19.6 mph N/A   Clear
3:53 PM 88.0 °F 93.8 °F 71.1 °F 57% 29.74 in 10.0 mi South 10.4 mph - N/A   Clear
4:53 PM 88.0 °F 94.7 °F 72.0 °F 59% 29.73 in 10.0 mi SSE 9.2 mph - N/A   Clear
5:53 PM 89.1 °F 97.0 °F 73.0 °F 59% 29.73 in 10.0 mi South 11.5 mph - N/A   Clear
6:53 PM 87.1 °F 92.0 °F 70.0 °F 57% 29.72 in 10.0 mi South 6.9 mph - N/A   Clear
7:53 PM 82.9 °F 87.0 °F 70.0 °F 65% 29.73 in 10.0 mi SSE 8.1 mph - N/A   Clear
8:53 PM 79.0 °F - 70.0 °F 74% 29.74 in 10.0 mi ESE 4.6 mph - N/A   Clear
9:53 PM 78.1 °F - 71.1 °F 79% 29.73 in 10.0 mi SE 8.1 mph - N/A   Clear
10:53 PM 78.1 °F - 72.0 °F 81% 29.73 in 10.0 mi SE 11.5 mph 20.7 mph N/A   Partly Cloudy
11:53 PM 79.0 °F - 73.0 °F 82% 29.73 in 10.0 mi SSE 8.1 mph - N/A   Scattered Clouds